GW4795 Weather Reports


time (UTC)temp
F
wind
direction
speed
knots
gust
knots
rain 1hr
in
rain 24hr
in
rain mn
in
humidity
%
barometer
mb
20260831234017 74 234 6.1 9.6 0.00 0.00 0.00 54 1009.4
20260831233503 74 221 2.6 9.6 0.00 0.00 0.00 54 1009.5
20260831233002 75 264 4.3 11.3 0.00 0.00 0.00 53 1009.7
20260831232502 75 234 4.3 11.3 0.00 0.00 0.00 52 1009.7
20260831232002 75 300 4.3 9.6 0.00 0.00 0.00 52 1009.6
20260831231506 75 266 2.6 9.6 0.00 0.00 0.00 52 1009.7
20260831231002 76 242 2.6 7.8 0.00 0.00 0.00 51 1009.7
20260831230502 77 256 2.6 7.0 0.00 0.00 0.00 51 1009.8
20260831230004 77 286 3.5 8.7 0.00 0.00 0.00 50 1009.9
20260831225503 77 334 4.3 8.7 0.00 0.00 0.00 50 1010.0
20260831225003 77 312 2.6 9.6 0.00 0.00 0.00 49 1009.9
20260831224503 77 342 2.6 9.6 0.00 0.00 0.00 50 1010.0
20260831224003 77 273 3.5 8.7 0.00 0.00 0.00 51 1010.0
20260831223503 77 235 3.5 8.7 0.00 0.00 0.00 52 1010.1
20260831223003 76 224 2.6 7.8 0.00 0.00 0.00 51 1010.2
20260831222502 76 234 3.5 7.8 0.00 0.00 0.00 52 1010.3
20260831222004 76 220 3.5 7.8 0.00 0.00 0.00 53 1010.3
20260831221511 76 255 3.5 7.8 0.00 0.00 0.00 52 1010.4
20260831221002 76 281 4.3 10.4 0.00 0.00 0.00 52 1010.5
20260831220504 75 239 3.5 10.4 0.00 0.00 0.00 53 1010.5
20260831220005 76 217 3.5 7.8 0.00 0.00 0.00 52 1010.6
20260831215502 76 272 4.3 7.8 0.00 0.00 0.00 51 1010.7
20260831215001 76 172 1.7 10.4 0.00 0.00 0.00 53 1010.8
20260831214504 76 260 6.1 9.6 0.00 0.00 0.00 52 1010.9
20260831214003 76 286 5.2 9.6 0.00 0.00 0.00 52 1010.9
20260831213503 76 298 5.2 10.4 0.00 0.00 0.00 51 1011.1
20260831213003 76 292 5.2 10.4 0.00 0.00 0.00 52 1011.1
20260831212503 76 264 3.5 8.7 0.00 0.00 0.00 54 1011.2
20260831212002 76 260 3.5 8.7 0.00 0.00 0.00 54 1011.3
20260831211503 75 234 4.3 8.7 0.00 0.00 0.00 53 1011.3
20260831211003 75 271 3.5 8.7 0.00 0.00 0.00 53 1011.4
20260831210504 75 260 2.6 7.8 0.00 0.00 0.00 53 1011.5
20260831210004 75 238 4.3 7.8 0.00 0.00 0.00 53 1011.5
20260831205503 75 196 3.5 8.7 0.00 0.00 0.00 53 1011.5
20260831205004 75 244 3.5 10.4 0.00 0.00 0.00 54 1011.5
20260831204508 75 252 4.3 10.4 0.00 0.00 0.00 56 1011.6
20260831204003 74 263 3.5 7.8 0.00 0.00 0.00 56 1011.7
20260831203502 74 271 3.5 7.8 0.00 0.00 0.00 56 1011.7
20260831203006 74 276 2.6 7.8 0.00 0.00 0.00 59 1011.8
20260831202502 73 248 4.3 7.8 0.00 0.00 0.00 59 1011.9
20260831202003 72 179 1.7 7.8 0.00 0.00 0.00 58 1011.9
20260831201505 73 223 2.6 7.0 0.00 0.00 0.00 57 1012.0
20260831201004 73 240 2.6 7.8 0.00 0.00 0.00 58 1012.0
20260831200504 72 288 1.7 7.8 0.00 0.00 0.00 61 1012.1
20260831200004 72 290 2.6 7.0 0.00 0.00 0.00 59 1012.1
20260831195502 71 263 2.6 7.0 0.00 0.00 0.00 61 1012.2
20260831195004 71 212 2.6 7.0 0.00 0.00 0.00 60 1012.2
20260831194505 71 173 0.9 6.1 0.00 0.00 0.00 60 1012.2
20260831194006 71 236 3.5 7.8 0.00 0.00 0.00 63 1012.3
20260831193504 71 232 2.6 7.8 0.00 0.00 0.00 59 1012.4
20260831193004 72 257 2.6 7.0 0.00 0.00 0.00 60 1012.5
20260831192504 71 327 3.5 7.0 0.00 0.00 0.00 63 1012.6
20260831192006 71 165 2.6 6.1 0.00 0.00 0.00 62 1012.6
20260831191503 71 205 2.6 6.1 0.00 0.00 0.00 59 1012.8
20260831191003 71 314 2.6 5.2 0.00 0.00 0.00 60 1012.8
20260831190503 72 207 1.7 6.1 0.00 0.00 0.00 59 1012.9
20260831190013 71 220 1.7 6.1 0.00 0.00 0.00 59 1012.9
20260831185505 71 264 3.5 6.1 0.00 0.00 0.00 63 1012.9
20260831185004 70 254 1.7 3.5 0.00 0.00 0.00 64 1012.9
20260831184505 69 274 0.9 5.2 0.00 0.00 0.00 63 1013.0
20260831184004 68 147 1.7 6.1 0.00 0.00 0.00 64 1013.0
20260831183504 69 196 1.7 6.1 0.00 0.00 0.00 61 1013.1
20260831183005 68 281 1.7 5.2 0.00 0.00 0.00 61 1013.2
20260831182503 68 207 2.6 5.2 0.00 0.00 0.00 63 1013.3
20260831182004 69 235 2.6 6.1 0.00 0.00 0.00 60 1013.5
20260831181508 70 159 2.6 7.0 0.00 0.00 0.00 59 1013.6
20260831181003 69 267 2.6 7.0 0.00 0.00 0.00 63 1013.7
20260831180505 69 278 3.5 7.0 0.00 0.00 0.00 62 1013.7
20260831180005 68 245 1.7 6.1 0.00 0.00 0.00 64 1013.8
20260831175504 68 328 2.6 5.2 0.00 0.00 0.00 66 1013.8
20260831175004 67 360 1.7 5.2 0.00 0.00 0.00 66 1013.9
20260831174508 67 323 2.6 4.3 0.00 0.00 0.00 68 1013.9
20260831174006 66 340 0.9 5.2 0.00 0.00 0.00 69 1013.9
20260831173504 66 294 1.7 5.2 0.00 0.00 0.00 70 1014.0
20260831173005 66 285 0.0 0.0 0.00 0.00 0.00 70 1014.0
20260831172503 65 319 0.0 0.0 0.00 0.00 0.00 75 1014.1
20260831172003 64 360 0.0 0.0 0.00 0.00 0.00 73 1014.2
20260831171509 64 294 0.0 0.0 0.00 0.00 0.00 74 1014.1
20260831171005 64 242 0.0 0.0 0.00 0.00 0.00 74 1014.2
20260831170504 63 330 0.0 0.0 0.00 0.00 0.00 74 1014.2
20260831170008 63 253 0.0 0.0 0.00 0.00 0.00 77 1014.2
20260831165506 62 292 0.0 0.0 0.00 0.00 0.00 78 1014.2
20260831165004 61 340 0.0 0.0 0.00 0.00 0.00 78 1014.3
20260831164517 61 278 0.0 0.0 0.00 0.00 0.00 79 1014.3
20260831164005 60 315 0.0 0.0 0.00 0.00 0.00 80 1014.4
20260831163505 59 360 0.0 0.0 0.00 0.00 0.00 84 1014.4
20260831163016 59 338 0.0 0.0 0.00 0.00 0.00 82 1014.4
20260831162504 58 133 0.0 0.0 0.00 0.00 0.00 83 1014.4
20260831162004 58 177 0.0 0.0 0.00 0.00 0.00 84 1014.5
20260831161508 57 144 0.0 0.0 0.00 0.00 0.00 86 1014.5
20260831161007 56 177 0.0 0.0 0.00 0.00 0.00 88 1014.5
20260831160505 55 5 0.0 0.0 0.00 0.00 0.00 90 1014.5
20260831160013 54 12 0.0 0.0 0.00 0.00 0.00 91 1014.6
20260831155505 53 98 0.0 0.0 0.00 0.00 0.00 92 1014.6
20260831155004 53 38 0.0 0.0 0.00 0.00 0.00 92 1014.7
20260831154536 52 101 0.0 0.0 0.00 0.00 0.00 92 1014.7
20260831154006 52 101 0.0 0.0 0.00 0.00 0.00 93 1014.7
20260831153504 51 98 0.0 0.0 0.00 0.00 0.00 93 1014.7
20260831153014 51 72 0.0 0.0 0.00 0.00 0.00 93 1014.7
20260831152505 51 28 0.0 0.0 0.00 0.00 0.00 93 1014.8
20260831152004 51 101 0.0 0.0 0.00 0.00 0.00 93 1014.8
20260831151512 50 82 0.0 0.0 0.00 0.00 0.00 93 1014.9
20260831151006 50 88 0.0 0.0 0.00 0.00 0.00 93 1014.9
20260831150507 50 92 0.0 0.0 0.00 0.00 0.00 93 1014.9
20260831150011 50 90 0.0 0.0 0.00 0.00 0.00 93 1014.9
20260831145504 49 49 0.0 0.0 0.00 0.00 0.00 92 1014.8
20260831145009 49 43 0.0 0.0 0.00 0.00 0.00 92 1014.8
20260831144515 49 40 0.0 0.0 0.00 0.00 0.00 92 1014.8
20260831144006 49 86 0.0 0.0 0.00 0.00 0.00 92 1014.7
20260831143503 49 87 0.0 0.0 0.00 0.00 0.00 91 1014.7
20260831143004 49 87 0.0 0.0 0.00 0.00 0.00 91 1014.6
20260831142504 49 87 0.0 0.0 0.00 0.00 0.00 91 1014.6
20260831142003 49 87 0.0 0.0 0.00 0.00 0.00 91 1014.6
20260831141504 49 87 0.0 0.0 0.00 0.00 0.00 90 1014.6
20260831141005 49 87 0.0 0.0 0.00 0.00 0.00 90 1014.6
20260831140503 49 87 0.0 0.0 0.00 0.00 0.00 90 1014.7
20260831140007 49 87 0.0 0.0 0.00 0.00 0.00 89 1014.7
20260831135504 49 87 0.0 0.0 0.00 0.00 0.00 90 1014.7
20260831135005 49 87 0.0 0.0 0.00 0.00 0.00 90 1014.6
20260831134516 49 87 0.0 0.0 0.00 0.00 0.00 90 1014.7
20260831134003 49 87 0.0 0.0 0.00 0.00 0.00 89 1014.6
20260831133502 49 87 0.0 0.0 0.00 0.00 0.00 89 1014.7
20260831133013 49 71 0.0 0.0 0.00 0.00 0.00 89 1014.6
20260831132504 49 71 0.0 0.0 0.00 0.00 0.00 89 1014.6
20260831132002 49 71 0.0 0.0 0.00 0.00 0.00 89 1014.7
20260831131506 49 71 0.0 0.0 0.00 0.00 0.00 89 1014.7
20260831131006 49 71 0.0 0.0 0.00 0.00 0.00 89 1014.7
20260831130503 50 71 0.0 0.0 0.00 0.00 0.00 89 1014.8
20260831130007 50 71 0.0 0.0 0.00 0.00 0.00 89 1014.9
20260831125504 50 71 0.0 0.0 0.00 0.00 0.00 89 1015.0
20260831125003 50 71 0.0 0.0 0.00 0.00 0.00 89 1015.0
20260831124508 50 71 0.0 0.0 0.00 0.00 0.00 90 1015.1
20260831124003 50 10 0.0 0.0 0.00 0.00 0.00 90 1015.0
20260831123503 50 22 0.0 0.0 0.00 0.00 0.00 89 1015.1
20260831123008 50 47 0.0 0.0 0.00 0.00 0.00 89 1015.2
20260831122504 50 47 0.0 0.0 0.00 0.00 0.00 89 1015.2
20260831122003 50 47 0.0 0.0 0.00 0.00 0.00 89 1015.2
20260831121507 50 47 0.0 0.0 0.00 0.00 0.00 89 1015.2
20260831121003 50 47 0.0 0.0 0.00 0.00 0.00 90 1015.2
20260831120503 51 47 0.0 0.0 0.00 0.00 0.00 89 1015.3
20260831120004 51 352 0.0 0.0 0.00 0.00 0.00 89 1015.3
20260831115505 51 360 0.0 0.0 0.00 0.00 0.00 90 1015.2
20260831115007 51 352 0.0 0.0 0.00 0.00 0.00 90 1015.3
20260831114508 51 348 0.0 0.0 0.00 0.00 0.00 89 1015.4
20260831114004 51 348 0.0 0.0 0.00 0.00 0.00 89 1015.4
20260831113507 51 340 0.0 0.0 0.00 0.00 0.00 88 1015.5
20260831113010 51 340 0.0 0.0 0.00 0.00 0.00 88 1015.4
20260831112506 51 332 0.0 0.0 0.00 0.00 0.00 88 1015.5
20260831112003 51 331 0.0 0.0 0.00 0.00 0.00 88 1015.5
20260831111511 51 352 0.0 0.0 0.00 0.00 0.00 88 1015.5
20260831111006 51 53 0.0 0.0 0.00 0.00 0.00 88 1015.5
20260831110506 51 66 0.0 0.0 0.00 0.00 0.00 87 1015.5
20260831110013 51 66 0.0 0.0 0.00 0.00 0.00 87 1015.5
20260831105506 51 67 0.0 0.0 0.00 0.00 0.00 87 1015.5
20260831105004 51 83 0.0 0.0 0.00 0.00 0.00 87 1015.6
20260831104504 51 83 0.0 0.0 0.00 0.00 0.00 87 1015.6
20260831104004 52 83 0.0 0.0 0.00 0.00 0.00 87 1015.7
20260831103503 52 83 0.0 0.0 0.00 0.00 0.00 87 1015.8
20260831103014 52 83 0.0 0.0 0.00 0.00 0.00 87 1015.9
20260831102508 52 83 0.0 0.0 0.00 0.00 0.00 87 1015.9
20260831102004 52 83 0.0 0.0 0.00 0.00 0.00 87 1015.9
20260831101543 52 83 0.0 0.0 0.00 0.00 0.00 86 1015.9
20260831101007 52 83 0.0 0.0 0.00 0.00 0.00 87 1016.0
20260831100504 52 83 0.0 0.0 0.00 0.00 0.00 86 1016.2
20260831100014 53 83 0.0 0.0 0.00 0.00 0.00 86 1016.2
20260831095507 53 83 0.0 0.0 0.00 0.00 0.00 86 1016.2
20260831095008 53 83 0.0 0.0 0.00 0.00 0.00 86 1016.3
20260831094525 53 83 0.0 0.0 0.00 0.00 0.00 86 1016.2
20260831094004 53 84 0.0 0.0 0.00 0.00 0.00 86 1016.3
20260831093504 53 323 0.0 0.0 0.00 0.00 0.00 86 1016.4
20260831093012 53 323 0.0 0.0 0.00 0.00 0.00 86 1016.5
20260831092506 53 322 0.0 0.0 0.00 0.00 0.00 86 1016.7
20260831092003 54 323 0.0 0.0 0.00 0.00 0.00 87 1016.6
20260831091520 54 323 0.0 0.0 0.00 0.00 0.00 87 1016.6
20260831091007 54 323 0.0 0.0 0.00 0.00 0.00 87 1016.6
20260831090508 54 294 0.0 0.0 0.00 0.00 0.00 87 1016.7
20260831090016 54 284 0.0 0.0 0.00 0.00 0.00 86 1016.8
20260831085505 54 291 0.0 0.0 0.00 0.00 0.00 85 1016.8
20260831085010 54 291 0.0 0.0 0.00 0.00 0.00 85 1016.8
20260831084541 54 299 0.0 0.0 0.00 0.00 0.00 85 1016.8
20260831084009 54 299 0.0 0.0 0.00 0.00 0.00 85 1016.9
20260831083506 54 299 0.0 0.0 0.00 0.00 0.00 85 1016.9
20260831083020 54 299 0.0 0.0 0.00 0.00 0.00 84 1017.0
20260831082504 55 292 0.0 0.0 0.00 0.00 0.00 84 1017.1
20260831082004 55 292 0.0 0.0 0.00 0.00 0.00 84 1017.2
20260831081508 55 292 0.0 0.0 0.00 0.00 0.00 85 1017.1
20260831081012 55 285 0.0 0.0 0.00 0.00 0.00 85 1017.1
20260831080507 55 285 0.0 0.0 0.00 0.00 0.00 84 1017.1
20260831080035 55 285 0.0 0.0 0.00 0.00 0.00 84 1017.0
20260831075509 55 270 0.0 0.0 0.00 0.00 0.00 84 1017.1
20260831075010 55 230 0.0 0.0 0.00 0.00 0.00 83 1017.1
20260831074535 55 184 0.0 0.0 0.00 0.00 0.00 83 1017.1
20260831074010 55 184 0.0 0.0 0.00 0.00 0.00 83 1017.1
20260831073510 56 184 0.0 0.0 0.00 0.00 0.00 83 1017.1
20260831073021 56 184 0.0 0.0 0.00 0.00 0.00 83 1017.1
20260831072514 56 184 0.0 0.0 0.00 0.00 0.00 83 1017.1
20260831072008 56 184 0.0 0.0 0.00 0.00 0.00 83 1017.2
20260831071507 56 184 0.0 0.0 0.00 0.00 0.00 83 1017.3
20260831071005 56 184 0.0 0.0 0.00 0.00 0.00 83 1017.2
20260831070504 56 184 0.0 0.0 0.00 0.00 0.00 83 1017.3
20260831070014 56 184 0.0 0.0 0.00 0.00 0.00 83 1017.4
20260831065512 57 184 0.0 0.0 0.00 0.00 0.00 83 1017.5
20260831065007 57 246 0.0 1.7 0.00 0.00 0.00 83 1017.5
20260831064520 57 247 0.0 1.7 0.00 0.00 0.00 83 1017.6
20260831064010 57 242 0.0 0.9 0.00 0.00 0.00 83 1017.6
20260831063512 57 242 0.0 0.9 0.00 0.00 0.00 82 1017.6
20260831063022 57 242 0.9 0.9 0.00 0.00 0.00 82 1017.5
20260831062513 58 286 0.0 0.0 0.00 0.00 0.00 82 1017.6
20260831062011 58 286 0.0 1.7 0.00 0.00 0.00 81 1017.6
20260831061523 58 286 0.0 1.7 0.00 0.00 0.00 81 1017.7
20260831061012 58 286 0.0 1.7 0.00 0.00 0.00 80 1017.7
20260831060511 58 286 0.0 1.7 0.00 0.00 0.00 80 1017.8
20260831060015 59 286 0.0 1.7 0.00 0.00 0.00 81 1017.8
20260831055505 59 286 0.0 0.0 0.00 0.00 0.00 81 1017.9
20260831055006 59 286 0.0 0.0 0.00 0.00 0.00 81 1017.9
20260831054520 59 286 0.0 0.0 0.00 0.00 0.00 80 1017.8
20260831054010 59 286 0.0 0.0 0.00 0.00 0.00 80 1017.9
20260831053503 59 286 0.0 0.0 0.00 0.00 0.00 80 1017.9
20260831053005 60 286 0.0 1.7 0.00 0.00 0.00 79 1018.0
20260831052504 60 286 0.0 1.7 0.00 0.00 0.00 78 1018.1
20260831052004 60 286 0.0 1.7 0.00 0.00 0.00 78 1018.1
20260831051514 60 283 0.0 1.7 0.00 0.00 0.00 78 1018.3
20260831051004 60 283 0.0 1.7 0.00 0.00 0.00 78 1018.4
20260831050507 60 301 0.0 1.7 0.00 0.00 0.00 77 1018.4
20260831050009 60 309 0.0 1.7 0.00 0.00 0.00 77 1018.4
20260831045509 61 315 0.0 1.7 0.00 0.00 0.00 77 1018.4
20260831045006 61 336 0.0 0.0 0.00 0.00 0.00 76 1018.4
20260831044516 61 336 0.0 0.0 0.00 0.00 0.00 76 1018.4
20260831044009 61 336 0.0 0.0 0.00 0.00 0.00 76 1018.4
20260831043510 61 336 0.0 1.7 0.00 0.00 0.00 76 1018.3
20260831043003 62 336 0.0 1.7 0.00 0.00 0.00 75 1018.4
20260831042503 62 335 0.0 1.7 0.00 0.00 0.00 75 1018.3
20260831042003 62 306 0.9 1.7 0.00 0.00 0.00 74 1018.3
20260831041509 62 301 0.9 2.6 0.00 0.00 0.00 74 1018.4
20260831041007 62 322 0.0 2.6 0.00 0.00 0.00 74 1018.4
20260831040502 62 302 0.9 1.7 0.00 0.00 0.00 73 1018.4
20260831040018 62 311 0.0 3.5 0.00 0.00 0.00 73 1018.4
20260831035503 62 317 1.7 3.5 0.00 0.00 0.00 72 1018.4
20260831035003 63 294 0.9 2.6 0.00 0.00 0.00 72 1018.3
20260831034513 63 291 0.9 2.6 0.00 0.00 0.00 71 1018.3
20260831034004 63 286 0.9 2.6 0.00 0.00 0.00 70 1018.3
20260831033508 63 312 1.7 2.6 0.00 0.00 0.00 70 1018.3
20260831033021 63 267 1.7 2.6 0.00 0.00 0.00 70 1018.2
20260831032510 64 276 0.9 2.6 0.00 0.00 0.00 69 1018.3
20260831032001 64 311 1.7 2.6 0.00 0.00 0.00 68 1018.3
20260831031503 64 248 0.9 3.5 0.00 0.00 0.00 68 1018.4
20260831031003 64 261 0.9 3.5 0.00 0.00 0.00 67 1018.4
20260831030502 65 283 0.9 5.2 0.00 0.00 0.00 67 1018.4
20260831030005 65 286 0.9 5.2 0.00 0.00 0.00 66 1018.3
20260831025502 65 303 1.7 5.2 0.00 0.00 0.00 65 1018.3
20260831025004 65 238 1.7 3.5 0.00 0.00 0.00 65 1018.3
20260831024510 66 293 0.9 6.1 0.00 0.00 0.00 64 1018.3
20260831024006 66 317 1.7 6.1 0.00 0.00 0.00 63 1018.3
20260831023510 67 248 3.5 6.1 0.00 0.00 0.00 62 1018.3
20260831023017 67 296 2.6 6.1 0.00 0.00 0.00 61 1018.3
20260831022508 67 280 1.7 3.5 0.00 0.00 0.00 59 1018.4
20260831022010 67 277 1.7 6.1 0.00 0.00 0.00 59 1018.4
20260831021524 68 299 2.6 6.1 0.00 0.00 0.00 58 1018.4
20260831021010 68 293 2.6 6.1 0.00 0.00 0.00 57 1018.4
20260831020503 68 239 3.5 6.1 0.00 0.00 0.00 57 1018.5
20260831020002 68 218 0.9 7.0 0.00 0.00 0.00 56 1018.5
20260831015505 69 283 2.6 7.0 0.00 0.00 0.00 55 1018.5
20260831015004 69 277 1.7 6.1 0.00 0.00 0.00 55 1018.4
20260831014507 69 305 2.6 6.1 0.00 0.00 0.00 54 1018.5
20260831014005 69 245 2.6 6.1 0.00 0.00 0.00 54 1018.5
20260831013506 69 274 2.6 6.1 0.00 0.00 0.00 54 1018.6
20260831013015 70 256 1.7 5.2 0.00 0.00 0.00 54 1018.7
20260831012508 70 294 1.7 7.8 0.00 0.00 0.00 53 1018.7
20260831012007 70 275 2.6 7.8 0.00 0.00 0.00 52 1018.7
20260831011525 70 242 1.7 7.8 0.00 0.00 0.00 53 1018.7
20260831011011 70 238 1.7 7.8 0.00 0.00 0.00 51 1018.8
20260831010512 71 236 1.7 6.1 0.00 0.00 0.00 52 1018.8
20260831010031 71 311 3.5 7.0 0.00 0.00 0.00 52 1018.8
20260831005503 71 311 1.7 7.0 0.00 0.00 0.00 52 1018.8
20260831005003 71 286 2.6 7.0 0.00 0.00 0.00 51 1018.9
20260831004507 71 288 2.6 6.1 0.00 0.00 0.00 52 1018.9
20260831004002 71 242 2.6 6.1 0.00 0.00 0.00 51 1018.9
20260831003502 70 256 2.6 5.2 0.00 0.00 0.00 51 1019.0
20260831003010 71 209 1.7 5.2 0.00 0.00 0.00 50 1019.0
20260831002507 71 198 1.7 5.2 0.00 0.00 0.00 49 1019.0
20260831002005 72 197 1.7 5.2 0.00 0.00 0.00 50 1018.9
20260831001517 72 238 1.7 5.2 0.00 0.00 0.00 49 1018.9
20260831001007 72 261 1.7 5.2 0.00 0.00 0.00 49 1018.9
20260831000509 72 285 3.5 6.1 0.00 0.00 0.00 48 1018.9
20260831000026 72 210 1.7 6.1 0.00 0.00 0.00 48 1018.9
20260830235513 72 184 1.7 5.2 0.00 0.00 0.00 48 1018.9
20260830235016 73 151 0.9 4.3 0.00 0.00 0.00 47 1018.9
20260830234533 74 182 1.7 7.8 0.00 0.00 0.00 47 1018.9